sat.trackr.live / text

‹ back to catalog

DUBAISAT-2

NORAD 39419 · 2013-066D

PAYLOAD ACTIVE UNKNOWN

§ Identity

Operator
Country
UAE
Launch date
2013-11-21
Launch site
DLS
Launch vehicle
Mass (kg)
RCS (m²)
1.78

Purposes: earth_obs

External: N2YO · Heavens-Above · Gunter

§ Orbital elements

Epoch: 2026-09-10T04:45:41.048928Z

Period
95.32 min
Inclination
97.4638°
Eccentricity
0.0012754
Mean motion
15.10696097 rev/d
Perigee alt
525.3 km
Apogee alt
542.9 km
Semi-major
6,912.2 km
B*
7.1219e-5
RAAN
241.1843°
Arg perigee
98.7484°
Mean anomaly
261.5191°
Rev number
69,922

§ Raw data

DUBAISAT-21 39419U 13066D   26253.19839177  .00001118  00000+0  71219-4 0  99992 39419  97.4638 241.1843 0012754  98.7484 261.5191 15.10696097699224

JSON: /api/v1/satellites/39419 · /tle

For live sub-satellite position, see the globe view (requires WebGL).

§ Visibility from observer

Set your observer location to see the next 7 days of passes ≥ 10°. The values pass through the URL so the page stays shareable.

No JS? Fill the form by hand. The geolocation button needs JavaScript.